Regional Weather Roundup
Issued by NWS

Home | Current Version | Previous Version | Graphics & Text | Print | Product List | Glossary On
Versions: 1 2 3 4 5 6 7 8 9 10 11 12 13 14 15 16 17 18 19 20 21 22 23 24 25 26 27 28 29 30 31 32 33 34 35 36 37 38 39 40 41 42 43 44 45 46 47 48 49 50
000
ASUS45 KCYS 190310
RWRWY

WYOMING REGIONAL WEATHER ROUNDUP
NATIONAL WEATHER SERVICE CHEYENNE WY
800 PM MST SAT FEB 18 2017

NOTE:  "FAIR" INDICATES FEW OR NO CLOUDS BELOW 12,000 FEET
WITH NO SIGNIFICANT WEATHER AND/OR OBSTRUCTIONS TO VISIBILITY.

WYZ001-190400-
YELLOWSTONE NATIONAL PARK

CITY           SKY/WX    TMP DP  RH WIND       PRES   REMARKS
LK YELLOWSTONE   N/A     31  30  96 CALM      29.63F
W YELLOWSTONE  NOT AVBL

$$
WYZ002>013-054>058-071-098>099-190400-
NORTHERN WYOMING

CITY           SKY/WX    TMP DP  RH WIND       PRES   REMARKS
JACKSON        MOCLDY    34  34 100 SW8       29.64S WCI  27
CODY           MOCLDY    40  31  70 S3        29.56
GREYBULL       FAIR      43  33  68 E7        29.54S
WORLAND        FAIR      41  33  73 S7        29.56R
SHERIDAN       FAIR      36  30  79 SW10      29.54F WCI  28
BUFFALO        FAIR      47  29  49 S9        29.56F
GILLETTE       CLOUDY    52  33  48 S25G33    29.57F
HULETT         CLOUDY    52  32  46 CALM      29.62S
NEWCASTLE      FAIR      50  30  46 E3        29.66R

$$
WYZ014>020-022>026-101>103-190400-
CENTRAL WYOMING

CITY           SKY/WX    TMP DP  RH WIND       PRES   REMARKS
BIG PINEY      CLOUDY    31  31 100 CALM      29.69F
PINEDALE       CLOUDY    32  32 100 E3        29.71S
DUBOIS         MOCLDY    34  28  80 NW14      29.61S WCI  24
LANDER         FAIR      41  28  60 SE8       29.58F
RIVERTON       FAIR      39  31  72 S12       29.61S WCI  32
CASPER         FAIR      44  32  62 SW16G26   29.66F
DOUGLAS        CLOUDY    51  29  42 SW8       29.67F

$$
WYZ021-027>030-104>119-190400-
SOUTHERN WYOMING

CITY           SKY/WX    TMP DP  RH WIND       PRES   REMARKS
EVANSTON       MOCLDY    34  28  79 E9        29.67S WCI  27
KEMMERER         N/A     34  30  86 NE5       29.69S WCI  30
FORT BRIDGER   FAIR      33  33 100 CALM      29.70F
ROCK SPRINGS   FAIR      37  30  75 E6        29.69S WCI  32
DIXON            N/A     35  32  88 CALM      29.78F
RAWLINS        FAIR      37  31  78 SW7       29.75S WCI  32
SARATOGA       FAIR      34  32  93 CALM      29.76S
LARAMIE        MOCLDY    35  27  72 NE8       29.73S WCI  29
CHEYENNE       FAIR      45  21  38 CALM      29.69F
TORRINGTON     FAIR      49  23  36 CALM      29.65S
PINE BLUFFS    FAIR      45  21  39 S10       29.69S

$$



USA.gov is the U.S. government's official web portal to all federal, state and local government web resources and services.